• Currently

    Reported at Minneapolis, Minneapolis-St. Paul International Airport, MN
    5:53 AM CST SAT JUL 22 2017
  • 72°F22°C
  • Overcast
    Overcast
  • Feels Like:72°F22°CDew Point:66°F19°CHumidity:83% Winds:N 6 mph 10 kph
    Pressure:29.83 in1010 hPaVisibility:10.00 miles16090.00 meters
Time Weather Temp Dew Point
Humidity Winds Visibility Pressure Precipitation
1 hr 24 hr
Monday, July 10
23:53 23:53 Cloudy With Light Rain Cloudy With Light Rain 71°F22°C 65°F18°C 81% E 8 mphE 13 kph 10.0 miles16.1 km 29.8 in1009 hPa 0.00 in0.03 mm --
22:53 22:53 Mostly Cloudy Mostly Cloudy 71°F22°C 67°F19°C 87% SE 8 mphSE 13 kph 10.0 miles16.1 km 29.77 in1008 hPa 0.00 in0.00 mm --
21:53 21:53 Mostly Cloudy Mostly Cloudy 72°F22°C 66°F19°C 82% SE 8 mphSE 13 kph 10.0 miles16.1 km 29.77 in1008 hPa 0.27 in174.19 mm --
21:51 21:51 Mostly Cloudy With Nearby Thunderstorms Mostly Cloudy With Nearby Thunderstorms 72°F22°C 66°F19°C 83% SE 8 mphSE 13 kph 10.0 miles16.1 km 29.77 in1008 hPa 0.27 in174.19 mm --
21:34 21:34 Mostly Cloudy With Light Thunderstorms Mostly Cloudy With Light Thunderstorms 71°F22°C 65°F18°C 81% SE 13 mphSE 20 kph 6.0 miles9.7 km 29.8 in1009 hPa 0.27 in174.19 mm --
21:25 21:25 Cloudy With Heavy Thunderstorms Cloudy With Heavy Thunderstorms 72°F22°C 65°F18°C 79% SE 18 mphSE 30 kph 1.0 miles1.6 km 29.8 in1009 hPa 0.27 in174.19 mm --
21:10 21:10 Mostly Cloudy With Thunderstorms Mostly Cloudy With Thunderstorms 79°F26°C 63°F17°C 58% E 14 mphE 22 kph 10.0 miles16.1 km 29.71 in1006 hPa 0.00 in0.00 mm --
20:53 20:53 Mostly Cloudy Mostly Cloudy 79°F26°C 63°F17°C 58% E 14 mphE 22 kph 10.0 miles16.1 km 29.71 in1006 hPa 0.00 in0.00 mm --
20:26 20:26 Mostly Cloudy Mostly Cloudy 80°F27°C 64°F18°C 58% E 15 mphE 24 kph 10.0 miles16.1 km 29.74 in1007 hPa 0.00 in0.00 mm --
19:53 19:53 Mostly Cloudy Mostly Cloudy 82°F28°C 63°F17°C 53% E 13 mphE 20 kph 10.0 miles16.1 km 29.8 in1009 hPa 0.00 in0.00 mm --
18:53 18:53 Partly Cloudy Partly Cloudy 83°F28°C 61°F16°C 48% ESE 7 mphESE 11 kph 10.0 miles16.1 km 29.8 in1009 hPa 0.00 in0.00 mm --
17:53 17:53 Mostly Cloudy Mostly Cloudy 83°F28°C 61°F16°C 48% SE 7 mphSE 11 kph 10.0 miles16.1 km 29.8 in1009 hPa 0.00 in0.00 mm --
16:53 16:53 Mostly Cloudy Mostly Cloudy 84°F29°C 61°F16°C 46% SSE 7 mphSSE 11 kph 10.0 miles16.1 km 29.8 in1009 hPa 0.00 in0.00 mm --
15:53 15:53 Mostly Cloudy Mostly Cloudy 84°F29°C 62°F17°C 48% SE 9 mphSE 15 kph 10.0 miles16.1 km 29.83 in1010 hPa 0.00 in0.00 mm --
14:53 14:53 Mostly Cloudy Mostly Cloudy 80°F27°C 63°F17°C 56% SSE 8 mphSSE 13 kph 10.0 miles16.1 km 29.88 in1012 hPa 0.00 in0.00 mm --
13:53 13:53 Mostly Cloudy Mostly Cloudy 79°F26°C 60°F16°C 52% ESE 7 mphESE 11 kph 10.0 miles16.1 km 29.91 in1013 hPa 0.00 in0.00 mm --
12:53 12:53 Mostly Cloudy Mostly Cloudy 78°F26°C 59°F15°C 52% SSE 14 mphSSE 22 kph 10.0 miles16.1 km 29.88 in1012 hPa 0.00 in0.00 mm --
12:51 12:51 Mostly Cloudy Mostly Cloudy 79°F26°C 61°F16°C 54% SSE 13 mphSSE 20 kph 10.0 miles16.1 km 29.88 in1012 hPa 0.00 in0.00 mm --
11:53 11:53 Cloudy Cloudy 75°F24°C 59°F15°C 58% SE 7 mphSE 11 kph 10.0 miles16.1 km 29.94 in1014 hPa 0.00 in0.00 mm --
10:53 10:53 Cloudy Cloudy 73°F23°C 57°F14°C 57% S 5 mphS 7 kph 10.0 miles16.1 km 29.97 in1015 hPa 0.00 in0.00 mm --
09:53 09:53 Cloudy Cloudy 73°F23°C 57°F14°C 57% NE 9 mphNE 15 kph 10.0 miles16.1 km 29.97 in1015 hPa 0.00 in0.00 mm --
08:53 08:53 Cloudy Cloudy 74°F23°C 56°F13°C 54% W 6 mphW 9 kph 10.0 miles16.1 km 29.97 in1015 hPa 0.00 in0.00 mm --
07:53 07:53 Cloudy Cloudy 70°F21°C 56°F13°C 61% SW 6 mphSW 9 kph 10.0 miles16.1 km 29.97 in1015 hPa 0.00 in0.00 mm --
06:53 06:53 Partly Cloudy Partly Cloudy 69°F21°C 55°F13°C 61% SW 6 mphSW 9 kph 10.0 miles16.1 km 29.97 in1015 hPa 0.00 in0.00 mm --
05:53 05:53 Mostly Cloudy Mostly Cloudy 68°F20°C 56°F13°C 65% SSW 5 mphSSW 7 kph 10.0 miles16.1 km 29.97 in1015 hPa 0.00 in0.00 mm --
04:53 04:53 Partly Cloudy Partly Cloudy 67°F19°C 56°F13°C 68% N 3 mphN 6 kph 10.0 miles16.1 km 29.97 in1015 hPa 0.00 in0.00 mm --
03:53 03:53 Clear Clear 68°F20°C 56°F13°C 65% CalmCalm 10.0 miles16.1 km 30 in1016 hPa 0.00 in0.00 mm --
02:53 02:53 Clear Clear 68°F20°C 56°F13°C 65% SW 3 mphSW 6 kph 10.0 miles16.1 km 30 in1016 hPa 0.00 in0.00 mm --
01:53 01:53 Clear Clear 69°F21°C 56°F13°C 63% CalmCalm 10.0 miles16.1 km 30 in1016 hPa 0.00 in0.00 mm --
00:53 00:53 Clear Clear 72°F22°C 56°F13°C 57% SW 5 mphSW 7 kph 10.0 miles16.1 km 30 in1016 hPa 0.00 in0.00 mm --